STARLINK-3299 (50831 NORAD) Tracking and Keplerian Element Data

This shows tracking and keplerian element data for the satellite.

Feedback or suggestion? Click here.




ElementValue
Catalog50831
NameSTARLINK-3299
Epoch Orbit130
Epoch Day140.58334491
Epoch Year2022
RAAN285.0442
Inclination53.2153
Eccentricity0.0001907
Argument of Perigee49.1178
Mean Anonmoly212.1759
Mean Motion15.08847054
Decay Rate-0.00025193
L11 50831U 22001AE 22140.58334491 -.00025193 00000+0 -15700-2 0 9994
L22 50831 53.2153 285.0442 0001907 49.1178 212.1759 15.08847054 1303

Live tracking and technical data element details for STARLINK-3299 (NORAD 50831). STARLINK-3299 can be tracked NOW for your location showing map with azimuth and elevation plus other details from your city location.

Track the satellite on the map from your city or location and see movement details for azimuth, elevation, latitude, longitude, range, height, and movement on the map or in text.







IsCatalogInMostPopularTable: catalog: 50831, numindb: 22
Update: records affected: 1



GetName: 50831 STARLINK-3299

Hit Count: updated at: Sun, 22 May 2022 05:04:19 GMT